Saginaw, MI

7:57 AM EDT on October 20, 2017 (GMT -0400)
MBS International

Weather History for KMBS - June, 2014

Change the Weather History Date:

Sunday, June 15, 2014

  Actual Average Record
Temperature  
Mean Temperature 68 °F 67 °F  
Max Temperature 82 °F 78 °F 91 °F (2001)
Min Temperature 53 °F 57 °F 42 °F (1999)
Degree Days  
Heating Degree Days 0    
Month to date heating degree days 12  
Since 1 June heating degree days 12  
Since 1 July heating degree days 7594  
Cooling Degree Days 3    
Month to date cooling degree days 49  
Year to date cooling degree days 93  
Since 1 June cooling degree days 49  
Growing Degree Days 17 (Base 50)    
Moisture  
Dew Point 51 °F    
Average Humidity 55    
Maximum Humidity 77    
Minimum Humidity 33    
Precipitation  
Precipitation 0.00 in 0.10 in 0.92 in (2015)
Month to date precipitation 0.76 1.50  
Year to date precipitation 12.35 13.15  
Snow  
Snow 0.00 in - - ()
Month to date snowfall 0.0  
Since 1 June snowfall 0.0  
Since 1 July snowfall 60.3  
Snow Depth 0.00 in    
Sea Level Pressure  
Sea Level Pressure 30.05 in    
Wind  
Wind Speed 12 mph (SE)    
Max Wind Speed 24 mph    
Max Gust Speed 30 mph    
Visibility 10 miles    
Events      
T = Trace of Precipitation, MM = Missing Value Source: NWS Daily Summary

Daily Weather History Graph

Daily Weather History Graph

Search for Another Location

Airport or City:

Trip Planner

Search our weather history database for the weather conditions in past years. The results will help you decide how hot, cold, wet, or windy it might be!

Date:

Astronomy

Jun. 15, 2014 Rise Set
Actual Time 5:54 AM EDT 9:19 PM EDT
Civil Twilight 5:18 AM EDT 9:55 PM EDT
Nautical Twilight 4:32 AM EDT 10:41 PM EDT
Astronomical Twilight 3:33 AM EDT 11:40 PM EDT
Moon 11:23 PM EDT (6/15) 8:51 AM EDT (6/15)
Length of Visible Light 16h 36m
Length of Day
15h 24m
Waning Gibbous, 91% of the Moon is Illuminated
Jun 15
Waning Gibbous
Jun 19
Last Quarter
Jun 27
New
Jul 5
First Quarter
Jul 12
Full

Hourly Weather History & Observations

Time (EDT) Temp. Dew Point Humidity Pressure Visibility Wind Dir Wind Speed Gust Speed Precip Events Conditions
12:53 AM 57.9 °F 50.0 °F 75% 30.13 in 10.0 mi ESE 6.9 mph - N/A   Clear
1:53 AM 55.9 °F 48.9 °F 77% 30.14 in 10.0 mi ESE 5.8 mph - N/A   Clear
2:53 AM 55.0 °F 48.9 °F 80% 30.13 in 10.0 mi ESE 4.6 mph - N/A   Clear
3:53 AM 53.1 °F 46.9 °F 80% 30.13 in 10.0 mi East 5.8 mph - N/A   Clear
4:53 AM 54.0 °F 46.9 °F 77% 30.13 in 10.0 mi East 5.8 mph - N/A   Clear
5:53 AM 53.1 °F 46.9 °F 80% 30.13 in 10.0 mi East 6.9 mph - N/A   Clear
6:53 AM 55.0 °F 48.0 °F 77% 30.15 in 10.0 mi ESE 6.9 mph - N/A   Clear
7:53 AM 59.0 °F 50.0 °F 72% 30.14 in 10.0 mi SE 9.2 mph - N/A   Clear
8:53 AM 64.0 °F 52.0 °F 65% 30.14 in 10.0 mi ESE 9.2 mph - N/A   Clear
9:53 AM 69.1 °F 54.0 °F 58% 30.12 in 10.0 mi SE 10.4 mph - N/A   Clear
10:53 AM 71.1 °F 53.1 °F 53% 30.10 in 10.0 mi SSE 10.4 mph - N/A   Clear
11:53 AM 75.0 °F 52.0 °F 44% 30.10 in 10.0 mi SSE 13.8 mph 23.0 mph N/A   Clear
12:53 PM 78.1 °F 50.0 °F 37% 30.07 in 10.0 mi SSE 17.3 mph 25.3 mph N/A   Clear
1:53 PM 79.0 °F 51.1 °F 38% 30.04 in 10.0 mi South 16.1 mph 25.3 mph N/A   Clear
2:53 PM 80.1 °F 51.1 °F 36% 30.02 in 10.0 mi SSE 18.4 mph 25.3 mph N/A   Clear
3:53 PM 81.0 °F 50.0 °F 34% 29.98 in 10.0 mi SSE 23.0 mph 27.6 mph N/A   Clear
4:53 PM 81.0 °F 48.9 °F 33% 29.96 in 10.0 mi SSE 19.6 mph 27.6 mph N/A   Clear
5:53 PM 81.0 °F 50.0 °F 34% 29.92 in 10.0 mi SSE 17.3 mph - N/A   Clear
6:53 PM 79.0 °F 53.1 °F 40% 29.95 in 10.0 mi SSE 12.7 mph - N/A   Clear
7:53 PM 79.0 °F 53.1 °F 40% 29.94 in 10.0 mi SSE 11.5 mph - N/A   Clear
8:53 PM 78.1 °F 54.0 °F 43% 29.94 in 10.0 mi SSE 10.4 mph - N/A   Overcast
9:53 PM 77.0 °F 54.0 °F 45% 29.94 in 10.0 mi SSE 10.4 mph - N/A   Mostly Cloudy
10:53 PM 77.0 °F 55.0 °F 47% 29.94 in 10.0 mi South 12.7 mph - N/A   Overcast
11:53 PM 75.9 °F 55.9 °F 50% 29.94 in 10.0 mi South 13.8 mph - N/A   Clear